Location: Brabourne
(51.1333°N, 1.0000°E)
Time: 22:50:25
(UTC+00:00)

Cosmos 1814 Rocket - Pass Details

Date: 20 June 2021
Orbit: 745 x 787 km, 74.1° (Epoch: 02 August)

Event Time Altitude Azimuth Distance (km) Brightness Sun altitude
Exits shadow 02:32:06 10° 224° (SW) 2,313 5.8 -8.1°
Reaches altitude 10° 02:32:10 10° 224° (SW) 2,288 5.8 -8.0°
Maximum altitude 02:37:13 52° 300° (WNW) 942 4.5 -7.6°
Drops below altitude 10° 02:42:16 10° 17° (NNE) 2,281 7.8 -7.1°
Sets 02:44:42 0° 23° (NNE) 3,205 9.1 -6.9°
